Location: Cucq
(50.4773°N, 1.6202°E)
Time: 04:03:09
(UTC+00:00)

SL-16 R/B - Pass Details

Date: 07 August 2020
Orbit: 840 x 849 km, 71.0° (Epoch: 19 September)

Event Time Altitude Azimuth Distance (km) Brightness Sun altitude
Rises 01:57:49 0° 330° (NNW) 3,425 5.8 -18.3°
Reaches altitude 10° 02:00:16 10° 330° (NNW) 2,486 5.0 -18.1°
Maximum altitude 02:06:00 87° 242° (WSW) 857 2.1 -17.6°
Drops below altitude 10° 02:11:41 10° 154° (SSE) 2,467 4.3 -17.2°
Enters shadow 02:13:05 - 154° (SSE) 3,003 4.8 -17.0°
